Preview of NWS' New Version of Forecast
This preview is not operational and should not be used for support decisions.

Regional Weather Roundup (RWR)

Issued by National Weather Service (NWS)

                            
000
ASUS43 KDTX 200610
RWRMI 
MICHIGAN HOURLY REGIONAL WEATHER ROUNDUP
NATIONAL WEATHER SERVICE DETROIT/PONTIAC MI
200 AM EDT SAT APR 20 2019

NOTE: "FAIR" INDICATES FEW OR NO CLOUDS BELOW 12,000 FEET WITH NO
SIGNIFICANT WEATHER AND/OR OBSTRUCTION TO VISIBILITY.

MIZ047>049-052>055-059>063-066>070-074>076-081>083-200700-
SOUTHEAST LOWER MICHIGAN
  
CITY           SKY/WX    TMP DP  RH WIND       PRES   REMARKS
ADRIAN         CLOUDY    40  34  79 NE22      29.69F WCI  30          
6HR MIN TEMP:  40; 6HR MAX TEMP:  41;                                

ALMA           MOCLDY    43  30  60 N9        29.84S                  
6HR MIN TEMP:  43; 6HR MAX TEMP:  47;                                

ANN ARBOR      CLOUDY    40  35  83 N16G26    29.70F WCI  31          
BAD AXE        CLOUDY    39  33  78 NE15G21   29.81R WCI  31          
6HR MIN TEMP:  39; 6HR MAX TEMP:  40;                                

CARO           CLOUDY    39  33  79 N8G16     29.80S WCI  34          
DETROIT CITY   LGT RAIN  39  36  89 N14       29.71F FOG     WCI  31  
6HR MIN TEMP:  39; 6HR MAX TEMP:  39; 6HR PCP: TRACE;                

DETROIT        LGT RAIN  40  35  83 N20       29.70F WCI  30          
6HR MIN TEMP:  40; 6HR MAX TEMP:  41; 6HR PCP: TRACE;                

FLINT          CLOUDY    40  33  76 NE14      29.78F WCI  32          
6HR MIN TEMP:  39; 6HR MAX TEMP:  41;                                

GROSSE ILE     CLOUDY    39  37  93 N15G23    29.68F WCI  31          
6HR MIN TEMP:  39; 6HR MAX TEMP:  41;                                

HILLSDALE      CLOUDY    40  33  76 N14       29.69F WCI  32          
6HR MIN TEMP:  39; 6HR MAX TEMP:  40;                                

HOWELL         CLOUDY    40  33  75 N9G21     29.74F WCI  34          
6HR MIN TEMP:  39; 6HR MAX TEMP:  40;                                


CITY           SKY/WX    TMP DP  RH WIND       PRES   REMARKS
JACKSON        CLOUDY    40  34  79 N14G30    29.72F WCI  32          
6HR MIN TEMP:  40; 6HR MAX TEMP:  41;                                

LAMBERTVILLE   LGT RAIN  40  38  95 N14G21    29.67F WCI  32          
6HR MIN TEMP:  40; 6HR MAX TEMP:  42;                                

LANSING        CLOUDY    41  33  73 NE21G26   29.78F                  
6HR MIN TEMP:  41; 6HR MAX TEMP:  42;                                

LAPEER         CLOUDY    39  35  84 NE14G24   29.77F WCI  31          
6HR MIN TEMP:  38; 6HR MAX TEMP:  40;                                

MASON          CLOUDY    41  34  76 N17G29    29.75F                  
6HR MIN TEMP:  40; 6HR MAX TEMP:  42;                                

MONROE         LGT RAIN  40  40  98 N10G18    29.68F WCI  34          
6HR MIN TEMP:  40; 6HR MAX TEMP:  42; 6HR PCP:  0.01;                

PONTIAC        CLOUDY    38  36  92 N17G24    29.72F WCI  28          
6HR MIN TEMP:  38; 6HR MAX TEMP:  39; 6HR PCP: TRACE;                

PORT HOPE        N/A     39  34  82 N22       29.80F WCI  29          
6HR MIN TEMP:  39; 6HR MAX TEMP:  40;                                

TRI CITIES     CLOUDY    42  34  73 NE18      29.84R                  
6HR MIN TEMP:  42; 6HR MAX TEMP:  44;                                

MIDLAND        CLOUDY    42  31  66 N7        29.84F                  
6HR MIN TEMP:  41; 6HR MAX TEMP:  46;                                

TROY           CLOUDY    39  35  84 N13G24    29.74F WCI  32          
SAGINAW HB     CLOUDY    43  36  75 N17G24    29.82S                  
$$
MIZ043>046-050>051-056>058-064>065-071>073-077>080-200700-
SOUTHWEST LOWER MICHIGAN
  
CITY           SKY/WX    TMP DP  RH WIND       PRES   REMARKS
BATTLE CREEK   CLOUDY    43  33  68 NE15G29   29.75F                  
6HR MIN TEMP:  43; 6HR MAX TEMP:  43;                                

BENTON HARBOR  FAIR      43  34  70 NE8       29.78F                  
6HR MIN TEMP:  37; 6HR MAX TEMP:  43;                                

BIG RAPIDS     FAIR      37  28  70 N3        29.86F                  
6HR MIN TEMP:  37; 6HR MAX TEMP:  50;                                

COLDWATER      CLOUDY    42  35  76 N20G28    29.72F                  
6HR MIN TEMP:  42; 6HR MAX TEMP:  43;                                

FREMONT        FAIR      39  26  58 N7        29.85F WCI  34          
6HR MIN TEMP:  39; 6HR MAX TEMP:  52;                                

HOLLAND        FAIR      44  28  53 NE10G20   29.82F                  
6HR MIN TEMP:  43; 6HR MAX TEMP:  52;                                

GRAND RAPIDS   FAIR      41  29  62 N14       29.81F                  
6HR MIN TEMP:  41; 6HR MAX TEMP:  48;                                

IONIA          MOCLDY    42  29  61 N16       29.80F                  
6HR MIN TEMP:  42; 6HR MAX TEMP:  45;                                

KALAMAZOO      MOCLDY    44  32  62 N17G28    29.76F                  
6HR MIN TEMP:  44; 6HR MAX TEMP:  45;                                

LUDINGTON      FAIR      36  25  64 N6        29.90S WCI  31          
6HR MIN TEMP:  34; 6HR MAX TEMP:  46;                                

MARSHALL       CLOUDY    42  36  78 NE10G23   29.74S                  
6HR MIN TEMP:  41; 6HR MAX TEMP:  42;                                

MOUNT PLEASANT FAIR      39  30  69 N5        29.85S                  
6HR MIN TEMP:  39; 6HR MAX TEMP:  47;                                

MUSKEGON       FAIR      43  25  49 N9        29.85F                  
6HR MIN TEMP:  43; 6HR MAX TEMP:  54;                                

SOUTH HAVEN    FAIR      42  33  68 N9        29.79F                  
$$
MIZ016>042-200700-
NORTHERN LOWER MICHIGAN
  
CITY           SKY/WX    TMP DP  RH WIND       PRES   REMARKS
ALPENA         FAIR      34  27  75 NE6       29.90F WCI  29          
6HR MIN TEMP:  33; 6HR MAX TEMP:  46;                                

BEAVER ISLAND  FAIR      30  23  75 CALM      29.94S                  
6HR MIN TEMP:  30; 6HR MAX TEMP:  48;                                

BELLAIRE       FAIR      31  29  93 CALM      29.92S                  
6HR MIN TEMP:  31; 6HR MAX TEMP:  50;                                

CADILLAC       FAIR      37  26  64 N6        29.87S WCI  32          
CHARLEVOIX     FAIR      32  28  85 CALM      29.95S                  
6HR MIN TEMP:  32; 6HR MAX TEMP:  43;                                

FRANKFORT      FAIR      43  21  41 N5        29.92R                  
GAYLORD        FAIR      33  21  61 CALM      29.89S                  
6HR MIN TEMP:  33; 6HR MAX TEMP:  47;                                

HARBOR SPRINGS FAIR      34  24  66 E3        29.93S                  
HOUGHTON LAKE  FAIR      34  25  69 NE7       29.87F WCI  28          
6HR MIN TEMP:  34; 6HR MAX TEMP:  47;                                

OSCODA         FAIR      40  31  71 NE17G23   29.86F WCI  31          
6HR MIN TEMP:  40; 6HR MAX TEMP:  44;                                

PELLSTON       FAIR      27  24  89 CALM      29.93F                  
6HR MIN TEMP:  26; 6HR MAX TEMP:  51;                                

ROGERS CITY    FAIR      30  27  89 CALM      29.93S                  
TRAVERSE CITY  FAIR      33  29  85 CALM      29.91S                  
6HR MIN TEMP:  32; 6HR MAX TEMP:  48;                                

$$
MIZ007>008-015-200700-
EASTERN UPPER MICHIGAN
  
CITY           SKY/WX    TMP DP  RH WIND       PRES   REMARKS
KINROSS        FAIR      31  27  85 N3        29.94S                  
6HR MIN TEMP:  31; 6HR MAX TEMP:  41;                                

MACKINAC ISLAN FAIR      32  26  78 NE6       29.93S WCI  27          
6HR MIN TEMP:  32; 6HR MAX TEMP:  45;                                

NEWBERRY       FAIR      31  27  86 CALM      29.94S                  
6HR MIN TEMP:  30; 6HR MAX TEMP:  44;                                

S. S. MARIE    FAIR      31  27  85 CALM      29.93S                  
6HR MIN TEMP:  31; 6HR MAX TEMP:  43;                                

MUNISING         N/A     28  23  81 S8        29.94F WCI  20          
6HR MIN TEMP:  28; 6HR MAX TEMP:  39;                                

$$
MIZ004>006-011>014-085-200700-
CENTRAL UPPER MICHIGAN
  
CITY           SKY/WX    TMP DP  RH WIND       PRES   REMARKS
MANISTIQUE     FAIR      32  15  50 N7        29.93F WCI  26          
6HR MIN TEMP:  32; 6HR MAX TEMP:  48;                                

ESCANABA       FAIR      27  25  92 CALM      29.95S                  
6HR MIN TEMP:  27; 6HR MAX TEMP:  51;                                

MENOMINEE      FAIR      28  26  92 N3        29.95S                  
6HR MIN TEMP:  27; 6HR MAX TEMP:  47;                                

SAWYER-GWINN   FAIR      28  22  81 NW3       29.94S                  
6HR MIN TEMP:  27; 6HR MAX TEMP:  48;                                

$$
MIZ001>003-009>011-084-200700-
WESTERN UPPER MICHIGAN
  
CITY           SKY/WX    TMP DP  RH WIND       PRES   REMARKS
IRON MOUNTAIN  FAIR      27  21  78 NW3       29.94S                  
6HR MIN TEMP:  26; 6HR MAX TEMP:  56;                                

HOUGHTON       FAIR      40  19  43 CALM      29.91S                  
6HR MIN TEMP:  34; 6HR MAX TEMP:  52;                                

COPPER HARBOR    N/A     38  25  59 SW9       29.90F WCI  31          
6HR MIN TEMP:  36; 6HR MAX TEMP:  45;                                

IRONWOOD       FAIR      29  27  92 CALM      29.91S                  
6HR MIN TEMP:  29; 6HR MAX TEMP:  56;                                

$$

ABBREVIATIONS USED IN REMARKS
   TC - TEMPERATURE IN CELSIUS
  WCI - WIND CHILL INDEX
   HX - HEAT INDEX
  VSB - VISIBILITY